Погода в Миндерле

Россия / Красноярский край     56°26′14″N   92°59′20″E
темп.,
°C
ветер,
м/с
пор.,
м/с
влажн.,
%
обл.,
%
осадки,
мм/ч
давл.,
гПа
погр.,
м
13 июня, вс
вс1301:00+8зсз116755 0.0 101310
04:00+7зюз22739 0.0 101311
07:00+11зюз2367100 0.0 1012164
10:00+18зюз45469 0.0 10111475
13:00+18зсз5647100 0.0 10101269
16:00+16зсз91063100 0.1 10101208
19:00+11зюз51295100 2.6 1010555
22:00+11з5109799 1.1 1010545
14 июня, пн
пн1401:00+11з3898100 1.1 1011397
04:00+10ссз599666 0.5 1011420
07:00+10ссз49850 0.5 1014467
10:00+14ссз57555 0.0 10151444
13:00+17ссз564360 0.0 10152409
16:00+18ссз573996 0.0 10152534
19:00+17ссз36535 0.0 1016317
22:00+10зсз22595 0.0 101710
15 июня, вт
вт1501:00+9з226036 0.0 101725
04:00+7з22705 0.0 101817
07:00+12зюз256697 0.0 1017217
10:00+17з365551 0.0 1016957
13:00+18з3657100 0.0 10151184
16:00+17зсз4967100 0.1 1015315
19:00+13з4991100 1.1 1016415
22:00+12ю2394100 1.4 101567
16 июня, ср
ср1601:00+12ююв4898100 6.8 1014237
04:00+12ююз2597100 3.4 1012160
07:00+12юз3696100 7.8 1012262
10:00+14з2797100 1.3 1012482
13:00+15сз2597100 5.9 1012242
16:00+16вюв119586 1.2 1011116
19:00+15вюв259698 2.8 1011198
22:00+14юв2499100 19.9 1011134
17 июня, чт
чт1701:00+13ю2398100 21.4 101169
04:00+13вюв269984 0.3 1011181
07:00+15юв359587 0.4 1011327
10:00+15юв4696100 0.8 1010419
13:00+17вюв559087 1.6 1009539
16:00+20юв457596 0.1 1008968
19:00+17ююв1296100 4.6 100754
22:00+16в1197100 1.9 100713